Location: Saluda
(35.2377°N, 82.3468°W)
Time: 16:28:23
(UTC+00:00)

Transit 2A - Pass Details

Date: 07 October 2022
Orbit: 598 x 959 km, 66.7° (Epoch: 06 December)

Event Time Altitude Azimuth Distance (km) Brightness Sun altitude
Rises 03:15:02 0° 213° (SSW) 2,955 - -49.0°
Reaches altitude 10° 03:17:24 10° 217° (SW) 2,008 - -49.4°
Maximum altitude 03:21:49 62° 298° (WNW) 686 - -50.1°
Drops below altitude 10° 03:26:06 10° 20° (NNE) 1,940 - -50.7°
Sets 03:28:21 0° 24° (NNE) 2,845 - -51.1°
